Location: Tel Aviv
(32.0670°N, 34.7670°E)
Time: 21:20:01
(UTC+02:00)

Vanguard 3 - All Passes

Search period start: 25 January 2022 00:00
Search period end: 04 February 2022 00:00
Orbit: 508 x 3260 km, 33.3° (Epoch: 25 January)

Date Brightness Start Highest point End Pass type
(mag) Time Alt. Az. Time Alt. Az. Time Alt. Az.
25 Jan - 08:29:03 10° SSW 08:41:53 27° SSE 08:50:49 10° E daylight
25 Jan - 10:42:40 10° SW 10:56:09 57° SSE 11:03:41 10° E daylight
25 Jan - 12:59:18 10° W 13:09:06 86° N 13:14:33 10° E daylight
25 Jan - 15:15:02 10° W 15:21:10 88° SSW 15:25:12 10° ESE daylight
25 Jan - 17:28:59 10° W 17:32:06 21° SSW 17:34:58 10° SSE visible
26 Jan - 07:14:57 10° S 07:25:34 19° SE 07:34:04 10° ESE daylight
26 Jan - 09:25:42 10° SW 09:40:32 44° SSE 09:49:30 10° E daylight
26 Jan - 11:41:46 10° WSW 11:54:16 80° SSE 12:00:59 10° E daylight
26 Jan - 13:58:40 10° W 14:06:54 80° N 14:11:41 10° E daylight
26 Jan - 16:13:30 10° W 16:18:26 47° SSW 16:22:05 10° SE daylight
27 Jan - 06:06:25 10° SSE 06:08:56 10° SE 06:11:22 10° SE visible
27 Jan - 08:09:33 10° SSW 08:24:25 33° SSE 08:34:34 10° E daylight
27 Jan - 10:24:05 10° WSW 10:38:57 65° SSE 10:47:12 10° E daylight
27 Jan - 12:41:25 10° W 12:52:15 83° N 12:58:08 10° E daylight
27 Jan - 14:57:39 10° W 15:04:30 81° SSW 15:08:46 10° ESE daylight
27 Jan - 17:12:24 10° WSW 17:15:17 17° SW 17:17:51 10° S daylight
28 Jan - 06:54:50 10° S 07:07:57 23° SE 07:18:15 10° E daylight
28 Jan - 09:06:45 10° SW 09:23:05 52° SSE 09:32:59 10° E daylight
28 Jan - 11:23:31 10° WSW 11:37:11 86° SSE 11:44:30 10° E daylight
28 Jan - 13:40:59 10° W 13:50:08 83° N 13:55:18 10° E daylight
28 Jan - 15:56:20 10° W 16:01:41 40° SSW 16:05:26 10° SE daylight
29 Jan - 05:43:00 10° SSE 05:51:17 14° SE 05:58:47 10° ESE visible
29 Jan - 07:50:18 10° SSW 08:06:46 39° SSE 08:18:05 10° E daylight
29 Jan - 10:05:30 10° WSW 10:21:36 72° SSE 10:30:38 10° E daylight
29 Jan - 12:23:25 10° W 12:35:18 82° N 12:41:42 10° E daylight
29 Jan - 14:40:07 10° WNW 14:47:45 73° SSW 14:52:19 10° ESE daylight
29 Jan - 16:55:51 10° WSW 16:58:24 14° SW 17:00:37 10° S daylight
30 Jan - 06:35:11 10° SSW 06:50:09 28° SE 07:01:59 10° E daylight
30 Jan - 08:47:54 10° SW 09:05:30 58° SSE 09:16:21 10° E daylight
30 Jan - 11:05:13 10° WSW 11:20:00 90° E 11:27:59 10° E daylight
30 Jan - 13:23:09 10° W 13:33:18 87° N 13:38:53 10° E daylight
30 Jan - 15:39:06 10° W 15:44:52 35° SSW 15:48:46 10° SE daylight
31 Jan - 05:22:17 10° S 05:33:27 18° SE 05:43:30 10° ESE visible
31 Jan - 07:31:13 10° SW 07:48:58 45° SSE 08:01:24 10° E daylight
31 Jan - 09:46:56 10° WSW 10:04:10 78° SSE 10:14:00 10° ENE daylight
31 Jan - 12:05:19 10° W 12:18:18 83° N 12:25:16 10° E daylight
31 Jan - 14:22:28 10° WNW 14:30:56 66° SSW 14:35:49 10° ESE daylight
31 Jan - 16:39:22 10° WSW 16:41:25 12° SW 16:43:14 10° SSW daylight
01 Feb - 06:15:52 10° SSW 06:32:11 33° SE 06:45:22 10° E daylight
01 Feb - 08:29:09 10° SW 08:47:47 65° SSE 08:59:36 10° ENE daylight
01 Feb - 10:46:53 10° W 11:02:44 87° N 11:11:25 10° E daylight
01 Feb - 13:05:11 10° W 13:16:24 89° SSW 13:22:27 10° ESE daylight
01 Feb - 15:21:43 10° W 15:27:56 32° SW 15:32:03 10° SSE daylight
02 Feb - 05:02:25 10° S 05:15:26 22° SE 05:27:23 10° E visible
02 Feb - 07:12:21 10° SW 07:30:59 51° SSE 07:44:33 10° E daylight
02 Feb - 09:28:25 10° WSW 09:46:36 83° SSE 09:57:17 10° ENE daylight
02 Feb - 11:47:07 10° W 12:01:13 84° N 12:08:47 10° E daylight
02 Feb - 14:04:41 10° WNW 14:14:00 60° SSW 14:19:18 10° SE daylight
02 Feb - 16:23:10 10° WSW 16:24:21 11° SW 16:25:27 10° SSW daylight
03 Feb - 03:54:05 10° SSE 03:58:53 11° SE 04:03:39 10° ESE visible
03 Feb - 05:56:50 10° SSW 06:14:03 38° SE 06:28:31 10° E visible
03 Feb - 08:10:32 10° SW 08:29:55 70° SSE 08:42:44 10° ENE daylight
03 Feb - 10:28:31 10° W 10:45:23 86° N 10:54:48 10° E daylight
03 Feb - 12:47:07 10° W 12:59:23 84° SSW 13:05:58 10° ESE daylight
03 Feb - 15:04:15 10° W 15:10:54 29° SW 15:15:17 10° SSE daylight
